Location: Ohmer (historical)
(38.0096°N, 122.0227°W)
Time: 00:45:41
(UTC+00:00)

USA 215 - Pass Details

Date: 14 February 2026
Orbit: 1098 x 1109 km, 123.0° (Epoch: 10 January)

Event Time Altitude Azimuth Distance (km) Brightness Sun altitude
Rises 14:29:34 0° 128° (SE) 3,918 7.5 -6.5°
Reaches altitude 10° 14:32:03 10° 127° (SE) 2,963 6.8 -6.0°
Maximum altitude 14:38:35 77° 42° (NE) 1,136 3.5 -4.7°
Drops below altitude 10° 14:45:10 10° 318° (NW) 2,976 5.0 -3.5°
Sets 14:47:39 0° 317° (NW) 3,936 5.6 -3.0°
